STARLINK-1522, 46027

Orbit data source: Space-Track

STARLINK-1522, 46027 is a payload satellite owned by SpaceX/Seattle (US) in LEO that was launched on Fri, 07 Aug 2020 UTC via an FALCON 9 launch vehicle from the Air Force Eastern Test Range (AFETR). Payloads include a variety of satellites, spacecraft, and rockets equipped with specific instruments for various scientific and technological missions. These include communications satellites like Starlink; space stations such as the ISS; scientific satellites like the Hubble; Earth observation satellites from companies like Planet Labs, Umbra, and HawkEye 360; GPS; miniature CubeSats for education and research; and military/defense satellites.

Loading next visibility...
STARLINK-1522 details
Identifier
46027, 2020-055A
Orbit
LEO
Last TLE update8 hours ago
Origin
Flag of USSpaceX/Seattle (US)
ManufacturerSpaceX/Seattle
MissionOperational Commercial Communications
Bus & MotorSTARLINK, Unknown motor
Mass260 kg wet, ~248 kg dry
Launch date (UTC)
2020-08-07 (4 years ago)
Launch vehicle
FALCON 9
Launch site
Air Force Eastern Test Range (AFETR)
Object type
Payload
Rocket body
Debris
Shape & HBRBox + 1 Pan, 8.86 m
Radar Cross Section13.562 m², Large (>1 m²)

Expand to show TLE details & history

TLE from 8 hours ago
0 STARLINK-1522
1 46027U 20055A   24361.07634213  .00032840  00000-0  22118-2 0  9996
2 46027  53.0551 295.6293 0001466  75.0514 285.0638 15.06425776242266
Epoch: 2024-12-26T01:49Z
Definitive object data (Epoch: 2024-12-26T01:49:55.96Z)
Latitude0.00006°
Longitude173.08525°
Altitude547.748 km
Speed7.589 km/s
True Right ascension19h 42m 31s
True Declination0° 00' 00"
Sunlit
Object was in daylight at TLE epoch
Visualization TLE readout
Latitude53.07605°
Longitude-92.91281°
Altitude552.617 km
Speed7.592 km/s
Apparent Right ascension23h 34m 02s
Apparent Declination10° 46' 03"
Sunlit
Object is in full shadow
Visualization observer readout
Local Sidereal Time09:33:30
Azimuth324.384° NNW
Elevation-32.125°
Doppler factor1
Orbital elements
Apogee altitude548.418 km
Perigee altitude546.388 km
Semi-major axis6,925.54 km
Eccentricity0.0001466
Inclination53.0551°
RAAN295.6293°
Arg. of periapsis75.0514°
True anomaly285.04758°
Mean anomaly285.0638°
Eccentric anomaly285.05569°
Mean motion3.76585 °/min
BSTAR0.0022118
Orbital period95.6 mins
Loading maneuver chart data...
Loading historical data...
Loading historical data...
Loading historical data...
Loading historical data...
Loading historical data...
Loading historical data...
Loading historical data...

STARLINK-1522 Visibility forecast

Observer location: undefined°, undefined

Span
Click to sort rows by Start time (UTC) header in descending order
Start Az.
Max El. time (UTC)
Max El. Az.
Max El.
End time (UTC)
End Az.
7 mins2024-12-26 22:43:21.495Z234.83° WSW2024-12-26 22:46:21.495Z333.982° NNW44.479°2024-12-26 22:50:21.495Z48.317° ENE
5 mins2024-12-27 00:24:21.495Z303.878° NW2024-12-27 00:26:21.495Z339.973° N18.72°2024-12-27 00:29:21.495Z27.699° NE
4 mins2024-12-27 03:46:21.495Z351.109° N2024-12-27 03:48:21.495Z32.652° NE20.47°2024-12-27 03:50:21.495Z67.156° ENE
6 mins2024-12-27 05:25:21.495Z306.49° NW2024-12-27 05:27:21.495Z289.088° WNW42.732°2024-12-27 05:31:21.495Z134.975° SE
|